Location: Cheyres
(46.8153°N, 6.7877°E)
Time: 14:07:03
(UTC+00:00)

PicSat - Visible Passes

Search period start: 02 July 2022 00:00
Search period end: 12 July 2022 00:00
Orbit: 452 x 458 km, 97.4° (Epoch: 01 July)

Date Brightness Start Highest point End Pass type
(mag) Time Alt. Az. Time Alt. Az. Time Alt. Az.
02 Jul ? 20:37:53 10° E 20:39:36 13° ENE 20:41:20 10° NNE visible
02 Jul ? 22:11:01 33° SSW 22:12:05 46° W 22:15:26 10° NNW visible
03 Jul ? 21:37:26 32° SE 21:38:48 63° ENE 21:42:14 10° N visible
04 Jul ? 21:03:50 16° ESE 21:05:39 25° ENE 21:08:32 10° NNE visible
04 Jul ? 22:37:36 20° WSW 22:38:29 22° W 22:41:16 10° NW visible
05 Jul ? 20:31:34 10° E 20:32:39 11° ENE 20:33:44 10° NE visible
05 Jul ? 22:03:59 38° SSW 22:05:02 58° W 22:08:28 10° NNW visible
06 Jul ? 21:30:21 29° SE 21:31:44 50° ENE 21:35:06 10° N visible
06 Jul ? 23:04:06 11° WSW 23:04:54 11° W 23:06:03 10° WNW visible
07 Jul ? 20:56:42 14° ESE 20:58:35 21° ENE 21:01:13 10° NNE visible
07 Jul ? 22:30:27 24° WSW 22:31:18 27° W 22:34:18 10° NW visible
08 Jul ? 21:56:47 41° S 21:57:50 73° WSW 22:01:18 10° NNW visible
09 Jul ? 21:23:06 26° ESE 21:24:31 40° ENE 21:27:47 10° N visible
09 Jul ? 22:56:52 13° WSW 22:57:35 14° W 22:59:26 10° WNW visible
10 Jul ? 20:49:25 12° ESE 20:51:20 17° ENE 20:53:41 10° NNE visible
10 Jul ? 22:23:10 29° SW 22:23:58 33° W 22:27:08 10° NNW visible
11 Jul ? 21:49:27 43° SSE 21:50:29 88° ENE 21:53:57 10° NNW visible
